Regional Weather Roundup
Issued by NWS Newport/Morehead, NC

Home | Current Version | Previous Version | Text Only | Print | Product List | Glossary On
Versions: 1 2 3 4 5 6 7 8 9 10 11 12 13 14 15 16 17 18 19 20 21 22 23 24 25 26 27 28 29 30 31 32 33 34 35 36 37 38 39 40 41 42 43 44 45 46 47 48 49 50
000
ASUS42 KMHX 031925
RWRMHX
WEATHER ROUNDUP FOR EASTERN NORTH CAROLINA
NATIONAL WEATHER SERVICE NEWPORT/MOREHEAD CITY NC
300 PM EDT WED JUN 03 2015

NOTE: "FAIR" INDICATES FEW OR NO CLOUDS BELOW 12,000 FEET
WITH NO SIGNIFICANT WEATHER AND/OR OBSTRUCTIONS TO VISIBILITY

NCZ015>017-031-032-045>047-102-103-032000-
NORTH COAST

CITY           SKY/WX    TMP DP  RH WIND       PRES   REMARKS
EDENTON        CLOUDY    71  67  88 NE6       30.05S
ELIZABETH CITY NOT AVBL
KITTY HAWK     MOCLDY    74  69  85 N6        30.04R
MANTEO         PTSUNNY   74  69  81 N6        30.05R

$$

NCZ045>047-081-094-103-104-032000-
CENTRAL COAST

CITY           SKY/WX    TMP DP  RH WIND       PRES   REMARKS
FRISCO         CLOUDY    79  67  66 NE7       30.03F
SWANQUARTER      N/A     77 N/A N/A N5        30.00R

$$

NCZ095-097-098-100-101-032000-
SOUTHERN COAST

CITY           SKY/WX    TMP DP  RH WIND       PRES   REMARKS
BEAUFORT       CLOUDY    78  70  76 E6        30.02F
CEDAR ISLAND     N/A     77 N/A N/A NE6       30.06S
JACKSONVILLE   CLOUDY    76  68  76 NE5       30.02S
PINEY ISLAND   CLOUDY   N/A N/A N/A E9        30.02S
WILMINGTON     CLOUDY    75  69  81 E5        30.02S


$$

NCZ011>013-027>030-043-044-078>080-089-090>093-098-032000-
COASTAL PLAIN

CITY           SKY/WX    TMP DP  RH WIND       PRES   REMARKS
AHOSKIE        LGT RAIN  67  65  91 N8        30.07S
CLINTON        LGT RAIN  74  70  88 NE3       30.03F
ELIZABETHTOWN  CLOUDY    75  68  79 CALM      30.02S
GOLDSBORO      LGT RAIN  73  69  89 S3        30.02S
GREENVILLE     CLOUDY    73  68  83 N8        30.06S
HAVELOCK       RAIN      78  67  68 NE7       30.03S
KENANSVILLE    LGT RAIN  71  68  90 CALM      30.05S
KINSTON        CLOUDY    75  68  78 CALM      30.04F
NEW BERN       CLOUDY    78  68  71 SE5       30.03F
RICHLANDS      CLOUDY    72  64  78 CALM      30.03S
ROCKY MOUNT    CLOUDY    71  67  87 N9        30.06S
WASHINGTON     CLOUDY    74  68  81 NE7       30.04S
WHITEVILLE     CLOUDY    74  67  77 CALM      30.01S

$$

AMZ130-135-150-152-154-156-158-170-250-252-270-ANZ085-086-088-633-658-670-032000-
MARINE OBSERVATIONS

STATION/POSITION TIME  TEMP    WIND        PRES    WAVE   SWELL
                       AIR SEA DIR/SP/G            HT/PER HT/PER
                 (UTC) (F)     (DEG/KT/KT) (MB)    (FT/S) (FT/S)
CHESAPEAKE LIGHT 1900   66      40/ 21/ 23 1018.4
64 E VA BEACH    1850   74 75   60/  8/ 10 1017.0    5/ 7   5/ 7
DUCK             1900   65 60  340/ 12/ 12 1016.3
2 E DUCK         1811      72                N/A     4/ 7
OREGON INLET     1900   72 68  360/  8/ 11 1017.1
13E OREGON INLT  1900      77                N/A     4/ 7
HATTERAS CG      1900   77 77   30/  7/  9 1016.3
DIAMOND BUOY     1850   76 81   60/  4/  6 1016.8    3/ 8   2/ 8
CAPE LOOKOUT     1900   75      70/  8/ 10 1016.5
BEAUFORT LAB     1900   76 78  110/  7/ 10 1015.9
30 SE NEW RVR IN NOT AVBL
27 SE WRIGHTSVLE 1900      77  110/ 16/ 17   N/A
5 SE WRIGHTSVLE  1808   74 78  120/  6/ 10 1016.6
225 S CAPE HAT   1850   77 76  140/  8/ 10 1017.0    3/ 8   3/ 8
41 SE CHARLESTON 1850   73 79   70/ 10/ 12 1015.0    2/ 8   2/ 8

$$



USA.gov is the U.S. government's official web portal to all federal, state and local government web resources and services.